Wind_Speed
7 4 2 6 5 8 14 13 14 15 11 11 10 11 14 13 8 5 8 10 14 16 19 24 27 25 29 27 27 30 29 28 27 25 23 21 23 20 19 18 17 18 17 18 17 15 15 16 15
6 3 3 5 3 11 11 13 15 12 11 8 9 10 11 13 9 11 9 12 14 16 20 21 28 29 26 28 27 29 27 26 25 24 23 23 21 19 18 16 17 17 15 17 17 17 16 14 13
6 3 4 2 10 12 11 10 11 11 5 5 5 10 7 4 6 5 14 13 15 18 19 23 29 28 27 25 27 26 25 26 24 25 24 23 20 18 17 16 14 16 14 14 17 16 16 14 13
4 6 5 7 13 10 10 8 5 3 11 6 10 13 9 8 3 12 14 14 15 19 19 24 27 27 27 25 25 25 23 23 23 24 23 21 18 16 16 14 13 14 14 13 14 15 13 12 12
5 4 4 9 14 9 6 9 8 11 7 9 9 11 8 11 18 16 16 16 18 20 20 22 21 25 26 22 24 25 23 21 21 21 19 18 15 14 14 14 12 12 13 12 13 13 11 9 7
4 4 6 10 13 8 7 7 12 14 14 15 14 12 8 9 15 15 16 14 21 20 18 20 20 23 28 20 20 22 21 19 19 17 16 14 12 12 12 12 11 10 10 10 10 9 8 6 5
5 2 6 6 6 11 8 3 10 11 11 12 7 11 6 11 15 18 17 17 19 20 22 21 23 24 22 20 15 16 15 15 15 14 12 11 10 11 11 9 10 9 8 6 7 7 6 4 3
3 3 5 8 6 11 7 3 6 10 14 10 3 7 10 18 17 18 14 16 18 22 20 19 21 20 19 17 14 14 13 12 10 7 6 7 8 8 9 10 8 8 7 4 4 4 3 2 0
4 1 7 8 9 8 7 6 6 9 13 12 7 12 23 22 19 18 16 16 17 18 18 19 19 20 24 22 17 14 12 11 9 5 4 6 4 4 6 5 5 5 4 3 2 0 3 3 2
4 6 7 5 7 4 3 2 10 9 11 15 19 22 26 22 20 19 18 20 19 19 16 19 17 18 16 18 17 13 11 8 10 5 4 3 3 3 4 2 3 3 3 3 3 4 4 4 4
3 8 6 6 8 7 6 7 4 9 7 11 21 20 21 21 18 17 18 19 19 18 18 16 16 16 14 15 12 7 6 5 4 6 4 2 1 1 2 2 2 2 3 2 3 2 2 4 6
4 3 5 8 4 3 5 10 7 11 8 16 21 23 21 18 18 18 17 17 18 17 16 16 15 16 12 13 10 7 3 4 4 4 3 3 2 2 3 2 3 3 2 2 3 4 4 5 7
4 5 5 8 4 4 7 7 8 12 15 19 22 22 19 17 18 17 17 17 16 15 15 13 13 13 12 11 8 7 7 7 6 6 7 4 3 4 5 5 4 5 4 3 4 5 5 6 7
6 12 12 2 7 7 7 10 6 9 15 19 20 19 18 17 18 17 17 18 17 16 15 14 13 13 13 11 9 8 7 6 6 7 7 6 6 5 6 6 6 6 5 5 4 5 6 7 7
6 11 6 5 6 7 9 10 7 13 16 19 18 16 16 17 18 18 18 17 17 17 16 16 15 14 13 11 10 9 8 8 8 8 8 8 9 7 8 9 8 6 5 5 5 4 7 8 8
7 5 10 6 8 5 13 12 11 14 16 17 17 16 16 16 18 17 17 16 17 16 17 16 15 14 14 12 9 8 8 9 9 9 9 10 10 10 9 9 9 7 7 6 7 7 8 10 12
8 9 8 9 4 7 10 12 12 13 14 15 16 15 15 15 16 17 17 17 17 17 17 17 16 15 14 12 11 10 10 10 11 11 12 12 12 11 11 11 10 9 10 9 9 10 11 12 12
9 7 7 8 8 7 7 11 13 13 14 15 15 15 14 15 16 19 18 16 15 16 16 16 17 16 14 12 11 11 11 11 11 12 12 12 11 12 12 13 14 12 11 10 10 11 11 13 13
1 5 11 5 2 6 4 9 12 13 13 14 14 14 15 14 17 19 19 18 17 16 16 17 17 17 16 15 14 14 13 12 13 13 13 13 13 14 15 15 15 14 15 15 13 13 12 12 11
5 7 9 5 1 8 6 5 9 13 13 14 14 14 14 14 14 17 18 19 18 18 17 17 18 18 18 16 14 13 10 11 13 12 13 14 16 15 15 17 17 16 16 16 16 16 16 16 12
9 9 10 8 8 3 6 8 9 11 11 11 12 14 13 15 15 14 17 18 18 18 19 20 20 18 18 16 12 11 11 13 14 13 14 13 15 16 18 19 20 19 18 19 19 18 18 18 15
9 3 3 8 13 10 8 6 11 10 13 15 15 15 15 15 13 14 17 18 19 20 20 20 19 18 17 14 13 13 14 13 12 11 12 14 14 15 17 16 17 19 20 20 20 21 19 18 21
6 5 3 5 10 3 10 9 10 10 12 16 17 17 16 16 16 15 17 17 18 19 18 17 17 15 15 14 15 14 14 12 10 9 11 13 14 12 14 16 17 20 20 19 20 23 23 21 22
10 8 6 5 7 9 6 8 9 10 14 13 17 16 16 16 16 15 16 16 16 16 16 14 14 14 15 16 15 15 14 11 9 8 9 10 10 11 12 13 14 16 18 20 22 24 24 25 24
12 11 7 8 8 5 5 6 12 3 4 7 10 17 17 16 16 15 15 17 17 16 15 14 14 13 14 15 14 14 13 12 11 10 10 11 14 14 13 11 14 15 16 16 17 18 19 20 20
13 9 4 6 5 7 4 6 3 0 6 7 10 13 18 16 16 16 18 18 17 16 16 15 14 13 13 14 13 12 12 11 9 9 10 13 16 18 18 19 20 20 20 20 20 20 20 20 20
9 10 5 2 2 6 5 3 8 1 2 3 10 13 13 16 17 17 19 21 17 16 16 16 15 13 13 13 12 12 11 9 9 9 10 12 15 18 21 20 22 22 22 22 22 23 23 23 24
8 10 7 6 3 5 7 4 2 1 3 1 7 11 14 15 15 15 16 16 16 15 14 14 15 15 13 12 11 9 8 7 5 5 9 12 15 17 20 22 24 25 24 24 24 26 26 26 28
7 10 8 3 5 4 3 6 4 2 6 3 4 9 12 14 15 13 14 14 13 14 14 14 14 13 12 11 9 8 6 4 4 8 11 14 15 18 22 25 27 27 27 26 25 25 26 28 29
10 15 14 7 10 2 6 1 6 3 3 5 5 6 10 12 12 11 13 12 13 13 13 13 12 13 11 9 7 5 4 5 7 9 13 15 18 20 24 26 28 28 27 26 26 27 28 29 30
Wind_Direction
172 179 213 241 235 81 56 59 46 40 68 52 48 40 74 34 3 58 114 112 124 127 131 132 132 127 125 122 122 123 118 117 120 119 113 107 102 99 99 104 102 101 105 103 101 98 95 95 97
177 177 222 285 22 57 58 34 46 58 82 95 59 99 60 67 60 110 115 123 123 125 129 134 135 133 133 126 123 125 120 118 114 110 106 104 102 98 103 103 104 103 103 105 103 102 99 95 93
174 222 269 230 46 46 55 45 65 76 63 54 110 48 42 71 99 91 116 118 125 125 133 135 135 136 136 128 123 125 122 119 114 110 108 105 102 99 97 99 102 102 101 101 107 106 105 100 92
193 190 229 58 69 66 53 59 61 103 78 71 108 79 90 43 83 121 118 117 122 119 131 137 137 135 133 128 127 128 125 122 116 110 102 96 92 94 93 95 98 97 102 107 109 110 106 104 97
250 258 141 85 82 75 74 69 51 65 73 72 94 95 78 67 111 122 117 121 112 120 124 130 132 127 127 133 136 131 125 124 121 116 105 97 96 91 88 88 93 99 103 106 108 110 109 102 89
240 265 59 73 81 86 87 93 77 86 100 101 93 95 73 123 125 125 117 115 110 124 132 130 126 128 132 140 145 139 127 120 117 109 101 98 92 93 90 87 87 94 101 111 114 111 107 99 77
330 309 45 42 79 80 86 115 74 84 87 76 122 92 104 143 125 125 121 110 111 115 119 128 128 133 132 138 142 150 145 130 124 115 101 91 87 86 87 88 90 85 88 106 110 117 117 104 66
310 256 94 47 52 74 100 74 85 62 84 102 166 129 148 136 137 134 120 107 115 123 119 127 132 131 131 136 149 153 147 151 147 135 114 98 91 82 84 76 78 90 87 90 114 135 145 148 97
235 151 57 34 21 65 126 118 77 92 105 63 76 111 131 138 141 137 132 124 121 133 131 135 133 136 134 136 148 154 153 154 153 138 131 92 89 97 88 96 82 78 80 64 61 159 231 233 290
307 69 42 20 29 345 121 133 125 129 112 96 97 111 130 141 145 137 139 137 135 137 133 136 140 145 145 147 156 156 161 157 146 158 155 135 110 100 96 54 61 41 30 37 358 334 298 271 251
13 42 20 36 34 1 131 135 114 130 129 132 136 137 143 148 148 143 139 139 138 138 147 149 148 154 152 146 164 168 174 162 131 182 180 176 105 29 2 354 348 332 346 289 352 312 279 272 268
290 71 356 350 13 29 132 109 117 48 72 125 138 142 147 154 153 148 143 142 146 153 149 155 158 160 163 161 170 180 152 188 219 226 225 236 278 301 299 303 318 319 320 323 308 308 301 280 275
303 2 336 331 26 122 131 110 111 75 102 125 137 147 151 154 155 153 149 150 151 157 160 162 171 175 183 186 189 190 203 211 226 233 230 231 253 276 276 287 293 296 298 308 305 293 289 285 277
346 311 304 323 102 142 138 131 148 107 123 134 146 152 154 154 160 159 165 165 166 167 171 176 183 191 197 206 208 213 224 239 239 251 254 251 247 250 258 276 273 289 301 298 288 291 283 270 272
299 282 275 167 162 134 144 150 100 135 140 144 150 154 154 160 163 170 175 176 178 178 178 185 190 195 202 209 218 223 235 238 249 255 263 260 265 258 256 268 270 276 287 278 264 267 271 268 263
266 256 175 140 165 145 234 117 134 147 149 152 154 158 162 168 172 173 176 181 182 186 190 192 194 197 203 208 216 228 239 245 251 257 260 262 261 263 263 268 273 273 276 274 267 254 251 258 256
209 175 137 150 197 153 246 116 142 165 161 155 164 166 170 170 179 177 180 185 187 192 193 199 203 205 206 210 217 227 237 244 248 254 257 258 260 259 261 265 268 255 254 251 255 253 252 263 261
174 175 158 158 168 219 185 105 149 169 173 165 170 172 176 180 186 185 186 188 189 194 199 203 206 210 210 215 223 231 238 244 247 250 253 255 258 257 257 265 265 267 262 255 242 240 245 255 272
271 233 173 155 129 245 223 125 158 169 178 174 176 175 181 183 182 186 191 192 195 197 199 205 208 210 207 213 222 230 238 244 251 257 256 253 253 253 253 261 266 266 264 263 258 254 251 260 260
219 186 175 141 165 246 167 163 158 174 188 180 182 184 180 172 175 185 192 196 200 200 204 207 210 210 211 219 225 234 246 253 257 260 260 256 256 259 265 268 268 263 269 268 268 261 261 261 250
200 231 157 189 166 204 189 181 180 183 189 194 194 187 189 176 176 181 188 197 202 204 206 210 213 212 214 218 225 234 246 257 260 263 265 263 263 266 261 257 264 264 263 268 270 266 261 264 260
193 144 176 182 204 211 213 205 189 183 198 199 199 196 191 187 184 176 188 194 201 207 211 212 212 212 215 216 224 233 250 267 281 280 279 278 274 281 278 272 267 266 264 265 265 267 263 264 264
94 151 176 198 218 204 185 267 137 180 220 206 201 196 194 190 190 188 193 197 204 208 209 211 215 215 214 215 222 235 246 262 277 281 274 283 288 280 277 276 274 272 274 269 265 264 261 260 259
140 157 173 211 236 221 203 246 245 199 229 241 198 194 192 191 191 191 190 194 203 209 208 203 207 211 212 217 225 233 244 255 270 275 287 292 298 296 294 284 278 278 275 272 271 269 266 262 261
200 192 193 211 204 258 109 234 252 17 358 271 242 191 189 190 190 191 188 195 199 204 204 200 201 206 208 214 221 228 237 242 256 270 284 300 298 307 303 280 270 274 274 273 275 272 272 271 266
212 258 286 203 194 130 148 236 223 345 293 256 235 218 184 192 189 193 193 194 198 198 198 196 193 199 200 206 214 218 224 233 246 262 287 297 307 307 311 299 290 280 277 277 275 269 265 264 264
165 221 22 263 120 261 145 185 240 225 332 256 212 210 186 188 188 189 193 194 196 195 194 191 188 193 195 203 208 214 224 236 262 283 291 300 308 307 306 302 294 286 281 277 274 269 268 265 263
271 159 193 221 242 265 134 260 356 287 353 88 209 197 190 188 188 184 189 192 197 196 187 185 189 193 197 203 207 212 218 232 253 284 302 309 306 306 304 300 295 289 283 278 276 274 272 265 260
176 205 233 24 317 311 233 120 82 358 356 320 223 210 195 191 190 187 185 177 188 186 182 185 187 188 187 188 196 198 199 227 282 303 310 303 302 305 301 296 290 284 281 278 276 275 277 274 270
224 209 201 218 174 229 319 23 126 157 289 286 256 208 201 198 189 187 190 167 187 186 182 181 182 184 182 181 184 204 244 273 297 306 300 300 303 304 303 298 292 285 278 276 276 276 278 278 276
Height
779 780 781 774 770 758 782 781 764 773 774 769 770 773 788 788 794 815 807 810 811 814 818 819 821 824 826 828 831 832 834 836 838 839 840 843 842 844 847 848 849 849 850 851 852 855 857 857 858
780 780 780 765 767 781 787 769 780 776 773 771 774 777 785 804 802 805 810 814 816 818 819 822 824 827 830 832 835 836 838 841 842 843 844 845 846 847 849 851 851 851 853 853 854 856 858 860 861
779 779 770 760 766 789 788 775 776 776 772 772 781 782 788 815 806 809 812 815 818 820 822 825 827 831 834 836 838 840 842 844 846 846 848 848 850 852 852 853 855 854 856 857 856 858 859 860 863
777 774 764 768 782 780 778 773 771 770 773 774 777 795 801 809 808 811 815 818 820 823 826 830 832 834 837 839 842 844 846 848 849 850 850 852 854 855 856 857 858 858 858 860 860 860 862 863 864
773 763 765 773 779 774 769 770 768 775 780 782 780 800 809 811 812 816 818 821 823 828 830 834 835 838 841 843 845 848 849 851 852 853 854 855 858 858 859 859 860 860 861 862 863 863 865 865 866
767 764 775 781 778 771 768 766 769 778 782 788 793 803 815 816 816 819 822 823 826 831 835 837 841 843 845 846 850 852 853 854 855 856 857 859 860 861 861 862 863 863 864 865 865 865 866 867 868
768 766 786 776 777 774 772 763 770 776 780 789 788 806 819 818 820 822 825 827 831 836 839 842 842 847 849 851 854 856 856 857 858 859 860 862 863 863 864 864 864 866 866 868 867 867 868 869 870
763 761 775 771 776 783 769 767 767 771 790 786 787 803 820 817 821 825 828 831 836 838 841 845 849 852 853 857 857 857 859 859 861 862 863 864 865 865 866 865 867 868 868 870 869 869 869 869 870
759 770 785 784 777 775 766 772 773 774 784 788 789 791 807 818 822 825 830 835 839 841 844 847 852 856 858 860 860 860 860 860 862 864 864 865 866 867 867 867 869 868 869 870 870 870 870 870 871
758 771 781 768 767 773 767 768 776 781 788 797 800 807 814 820 823 826 830 833 837 842 848 851 854 857 860 860 861 861 862 863 863 866 867 867 868 868 868 869 869 870 870 870 870 870 871 871 870
764 776 767 763 764 762 765 771 770 776 786 789 802 809 816 820 823 826 828 833 837 842 847 853 855 859 860 862 863 864 862 863 863 867 867 867 868 869 869 870 870 871 870 869 869 869 870 871 871
772 765 765 761 761 766 769 767 776 777 781 783 797 807 815 820 823 827 831 835 839 843 847 852 855 859 860 863 864 864 864 865 866 867 867 868 869 870 871 870 871 871 870 870 871 870 871 872 872
771 765 763 758 760 765 766 775 779 785 782 790 801 808 814 819 824 829 833 838 841 845 849 852 856 859 861 863 865 866 866 866 867 867 867 868 869 870 871 870 870 870 870 870 871 871 872 871 871
769 766 764 761 764 766 770 778 774 788 787 796 804 808 813 818 824 829 833 837 842 846 849 852 855 858 861 862 864 865 865 865 866 866 866 866 867 869 869 868 868 868 868 870 870 870 870 870 869
770 780 761 761 762 771 763 787 784 785 789 799 804 808 812 818 824 829 833 837 841 845 848 851 855 858 861 862 863 864 864 864 864 864 864 864 864 866 866 866 865 866 867 866 866 867 868 867 866
776 771 779 766 764 768 767 795 788 784 790 799 803 807 812 817 822 827 832 836 840 844 848 851 854 856 859 861 862 863 863 863 863 863 863 863 863 863 864 864 863 863 863 864 864 863 863 864 863
773 782 776 779 761 768 770 788 788 783 787 797 802 807 811 816 821 825 830 834 838 842 846 850 853 855 857 859 860 861 861 861 861 861 861 862 862 862 862 863 863 862 863 863 864 864 864 863 861
783 780 775 780 770 767 773 784 787 785 786 793 798 803 808 812 817 823 827 832 836 840 844 848 850 853 855 857 858 859 859 859 859 859 859 860 860 860 861 860 861 860 860 860 860 860 860 860 858
775 774 778 773 768 774 771 780 786 785 785 791 794 799 803 807 812 819 824 829 833 838 841 844 847 849 852 854 855 856 856 856 856 856 856 856 857 857 857 857 857 857 856 855 857 856 855 855 855
777 777 779 777 772 775 776 783 780 784 784 784 790 794 796 800 807 814 821 825 830 834 838 840 842 845 847 849 851 852 853 852 852 853 853 853 853 854 854 853 852 851 852 852 851 852 851 850 850
771 774 778 778 777 770 777 791 790 781 781 781 782 787 790 794 801 809 817 822 825 829 833 835 838 841 843 846 848 850 850 850 849 849 849 849 848 849 849 847 848 849 848 847 847 847 846 845 845
776 766 770 776 784 796 775 803 785 777 784 783 783 785 787 791 795 803 810 816 820 823 826 830 834 837 840 843 846 846 845 845 844 846 846 845 845 845 844 844 843 843 842 842 842 841 842 842 839
773 764 771 774 779 784 788 796 776 772 783 776 775 777 781 786 791 797 804 809 813 817 822 826 830 834 838 840 841 842 842 842 842 843 843 843 841 841 841 840 839 840 838 836 837 836 836 835 834
763 774 777 777 776 808 783 794 784 775 774 763 762 769 775 780 787 792 798 804 809 813 818 822 826 830 833 835 837 838 839 840 841 840 840 839 838 837 838 837 836 835 834 833 832 830 830 829 827
767 776 800 813 808 808 786 798 781 765 766 767 759 761 768 774 781 787 793 799 805 809 814 819 823 826 828 831 833 834 836 837 838 839 837 837 835 832 832 833 833 831 830 828 827 826 825 823 822
770 766 785 825 811 798 796 806 782 766 763 763 760 753 759 769 775 781 786 794 800 805 811 815 819 822 824 826 829 831 832 834 834 834 834 833 832 832 831 830 830 828 825 823 822 821 819 818 817
772 784 759 787 788 800 785 783 766 763 763 764 760 756 758 766 769 777 782 788 795 801 806 810 815 818 820 823 826 828 830 830 830 831 831 831 830 829 828 827 825 823 822 819 816 815 813 812 810
760 752 788 780 817 822 798 801 788 775 768 766 765 762 762 764 767 773 780 786 792 798 802 806 810 814 817 820 823 825 826 827 828 829 829 828 828 827 825 823 821 818 816 814 811 808 805 804 803
772 773 768 766 784 801 811 793 768 772 765 765 763 760 761 764 766 771 777 785 791 795 799 803 807 811 814 817 819 821 823 824 825 825 825 825 824 822 821 818 815 812 809 807 804 802 800 797 794
742 754 760 783 802 786 794 792 754 760 761 761 759 760 759 762 766 772 777 785 791 794 797 801 805 808 811 814 816 818 820 820 821 821 822 821 819 817 815 812 809 805 802 799 797 794 791 788 785